contact:dominique.lefevre@mio.osupytheas.fr, maurice.libes@osupytheas.fr, didier.mallarino@osupytheas.fr
Project:EMSO http://www.emso-fr.org/EMSO-France
Depth: 2436.0 m
Title:EMSO Ligure Ouest : Data MII capteur MICROCAT
DateTime_Computer,Latitude,Longitude,Temperature,Conductivity,Pressure,DateTime_Instrument
DateTime_Computer,Latitude,Longitude,degC,S m-1,dbar,DateTime_Instrument
2020-03-30T00:02:39Z,42.805,6.029,13.2967,4.59968,2470.063,2020-3-30T02:03:18Z
2020-03-30T00:05:43Z,42.805,6.029,13.2964,4.59968,2470.063,2020-3-30T02:06:21Z
2020-03-30T00:08:46Z,42.805,6.029,13.2967,4.59968,2470.063,2020-3-30T02:09:24Z
2020-03-30T00:11:49Z,42.805,6.029,13.2965,4.59968,2470.063,2020-3-30T02:12:27Z
2020-03-30T00:14:52Z,42.805,6.029,13.2967,4.59971,2470.077,2020-3-30T02:15:31Z
2020-03-30T00:17:55Z,42.805,6.029,13.2967,4.59971,2470.063,2020-3-30T02:18:34Z
2020-03-30T00:20:59Z,42.805,6.029,13.2967,4.59969,2470.077,2020-3-30T02:21:37Z
2020-03-30T00:24:02Z,42.805,6.029,13.2971,4.59968,2470.077,2020-3-30T02:24:40Z
2020-03-30T00:27:05Z,42.805,6.029,13.2967,4.59971,2470.04,2020-3-30T02:27:43Z
2020-03-30T00:30:08Z,42.805,6.029,13.2966,4.59968,2470.04,2020-3-30T02:30:47Z
2020-03-30T00:33:12Z,42.805,6.029,13.2964,4.59969,2470.063,2020-3-30T02:33:50Z
2020-03-30T00:36:15Z,42.805,6.029,13.2966,4.59970,2470.077,2020-3-30T02:36:53Z
2020-03-30T00:39:18Z,42.805,6.029,13.2969,4.59968,2470.063,2020-3-30T02:39:56Z
2020-03-30T00:42:21Z,42.805,6.029,13.2966,4.59970,2470.04,2020-3-30T02:43:00Z
2020-03-30T00:45:24Z,42.805,6.029,13.2966,4.59969,2470.077,2020-3-30T02:46:03Z
2020-03-30T00:48:28Z,42.805,6.029,13.2968,4.59968,2470.077,2020-3-30T02:49:06Z
2020-03-30T00:51:31Z,42.805,6.029,13.2968,4.59969,2470.063,2020-3-30T02:52:09Z
2020-03-30T00:54:34Z,42.805,6.029,13.2967,4.59968,2470.04,2020-3-30T02:55:12Z
2020-03-30T00:57:37Z,42.805,6.029,13.2968,4.59968,2470.053,2020-3-30T02:58:16Z
2020-03-30T01:00:41Z,42.805,6.029,13.2965,4.59967,2470.053,2020-3-30T03:01:19Z
2020-03-30T01:03:44Z,42.805,6.029,13.2969,4.59968,2470.017,2020-3-30T03:04:23Z
2020-03-30T01:06:48Z,42.805,6.029,13.2968,4.59968,2470.04,2020-3-30T03:07:26Z
2020-03-30T01:09:51Z,42.805,6.029,13.2967,4.59969,2470.03,2020-3-30T03:10:29Z
2020-03-30T01:12:54Z,42.805,6.029,13.2967,4.59968,2470.03,2020-3-30T03:13:33Z
2020-03-30T01:15:57Z,42.805,6.029,13.2968,4.59968,2470.04,2020-3-30T03:16:36Z
2020-03-30T01:19:01Z,42.805,6.029,13.2970,4.59969,2470.04,2020-3-30T03:19:39Z
2020-03-30T01:22:04Z,42.805,6.029,13.2967,4.59968,2470.053,2020-3-30T03:22:42Z
2020-03-30T01:25:07Z,42.805,6.029,13.2967,4.59968,2470.04,2020-3-30T03:25:46Z
2020-03-30T01:28:11Z,42.805,6.029,13.2963,4.59968,2470.053,2020-3-30T03:28:49Z
2020-03-30T01:31:14Z,42.805,6.029,13.2968,4.59968,2470.053,2020-3-30T03:31:52Z
2020-03-30T01:34:17Z,42.805,6.029,13.2965,4.59968,2469.993,2020-3-30T03:34:55Z
2020-03-30T01:37:20Z,42.805,6.029,13.2968,4.59968,2469.993,2020-3-30T03:37:58Z
2020-03-30T01:40:23Z,42.805,6.029,13.2967,4.59970,2470.003,2020-3-30T03:41:02Z
2020-03-30T01:43:27Z,42.805,6.029,13.2970,4.59968,2470.04,2020-3-30T03:44:05Z
2020-03-30T01:46:30Z,42.805,6.029,13.2971,4.59968,2470.03,2020-3-30T03:47:08Z
2020-03-30T01:49:33Z,42.805,6.029,13.2965,4.59968,2470.04,2020-3-30T03:50:11Z
2020-03-30T01:52:36Z,42.805,6.029,13.2967,4.59968,2469.97,2020-3-30T03:53:15Z
2020-03-30T01:55:40Z,42.805,6.029,13.2964,4.59968,2470.03,2020-3-30T03:56:18Z
2020-03-30T01:58:43Z,42.805,6.029,13.2967,4.59968,2470.007,2020-3-30T03:59:21Z
2020-03-30T02:01:46Z,42.805,6.029,13.2962,4.59970,2470.03,2020-3-30T04:02:25Z
2020-03-30T02:04:49Z,42.805,6.029,13.2967,4.59967,2470.03,2020-3-30T04:05:28Z
2020-03-30T02:07:53Z,42.805,6.029,13.2968,4.59970,2470.053,2020-3-30T04:08:31Z
2020-03-30T02:10:56Z,42.805,6.029,13.2965,4.59968,2470.017,2020-3-30T04:11:34Z
2020-03-30T02:13:59Z,42.805,6.029,13.2968,4.59969,2469.993,2020-3-30T04:14:38Z
2020-03-30T02:17:03Z,42.805,6.029,13.2962,4.59969,2470.017,2020-3-30T04:17:41Z
2020-03-30T02:20:06Z,42.805,6.029,13.2968,4.59969,2470.017,2020-3-30T04:20:44Z
2020-03-30T02:23:09Z,42.805,6.029,13.2963,4.59970,2470.017,2020-3-30T04:23:47Z
2020-03-30T02:26:12Z,42.805,6.029,13.2967,4.59968,2470.03,2020-3-30T04:26:51Z
2020-03-30T02:29:16Z,42.805,6.029,13.2969,4.59968,2470.007,2020-3-30T04:29:54Z
2020-03-30T02:32:19Z,42.805,6.029,13.2966,4.59968,2470.04,2020-3-30T04:32:57Z
2020-03-30T02:35:22Z,42.805,6.029,13.2968,4.59968,2470.03,2020-3-30T04:36:00Z
2020-03-30T02:38:25Z,42.805,6.029,13.2971,4.59968,2470.007,2020-3-30T04:39:04Z
2020-03-30T02:41:29Z,42.805,6.029,13.2967,4.59971,2469.993,2020-3-30T04:42:07Z
2020-03-30T02:44:32Z,42.805,6.029,13.2965,4.59968,2470.007,2020-3-30T04:45:10Z
2020-03-30T02:47:35Z,42.805,6.029,13.2967,4.59969,2469.993,2020-3-30T04:48:13Z
2020-03-30T02:50:38Z,42.805,6.029,13.2967,4.59969,2469.993,2020-3-30T04:51:16Z
2020-03-30T02:53:41Z,42.805,6.029,13.2967,4.59968,2470.007,2020-3-30T04:54:20Z
2020-03-30T02:56:45Z,42.805,6.029,13.2969,4.59967,2469.993,2020-3-30T04:57:23Z
2020-03-30T02:59:48Z,42.805,6.029,13.2968,4.59968,2470.007,2020-3-30T05:00:26Z
2020-03-30T03:02:51Z,42.805,6.029,13.2966,4.59968,2470.007,2020-3-30T05:03:29Z
2020-03-30T03:05:54Z,42.805,6.029,13.2967,4.59968,2469.956,2020-3-30T05:06:33Z
2020-03-30T03:08:58Z,42.805,6.029,13.2967,4.59968,2469.979,2020-3-30T05:09:36Z
2020-03-30T03:12:01Z,42.805,6.029,13.2966,4.59968,2470.017,2020-3-30T05:12:39Z
2020-03-30T03:15:05Z,42.805,6.029,13.2968,4.59968,2469.993,2020-3-30T05:15:43Z
2020-03-30T03:18:08Z,42.805,6.029,13.2964,4.59968,2469.97,2020-3-30T05:18:46Z
2020-03-30T03:21:11Z,42.805,6.029,13.2968,4.59968,2470.017,2020-3-30T05:21:49Z
2020-03-30T03:24:14Z,42.805,6.029,13.2967,4.59968,2469.97,2020-3-30T05:24:53Z
2020-03-30T03:27:18Z,42.805,6.029,13.2971,4.59967,2469.993,2020-3-30T05:27:56Z
2020-03-30T03:30:21Z,42.805,6.029,13.2968,4.59968,2469.984,2020-3-30T05:30:59Z
2020-03-30T03:33:24Z,42.805,6.029,13.2964,4.59968,2469.993,2020-3-30T05:34:02Z
2020-03-30T03:36:27Z,42.805,6.029,13.2966,4.59968,2469.993,2020-3-30T05:37:06Z
2020-03-30T03:39:30Z,42.805,6.029,13.2966,4.59968,2469.993,2020-3-30T05:40:09Z
2020-03-30T03:42:34Z,42.805,6.029,13.2965,4.59968,2469.97,2020-3-30T05:43:12Z
2020-03-30T03:45:37Z,42.805,6.029,13.2967,4.59967,2469.947,2020-3-30T05:46:15Z
2020-03-30T03:48:40Z,42.805,6.029,13.2970,4.59968,2470.007,2020-3-30T05:49:19Z
2020-03-30T03:51:44Z,42.805,6.029,13.2964,4.59968,2469.947,2020-3-30T05:52:22Z
2020-03-30T03:54:47Z,42.805,6.029,13.2966,4.59967,2470.017,2020-3-30T05:55:25Z
2020-03-30T03:57:50Z,42.805,6.029,13.2965,4.59967,2469.993,2020-3-30T05:58:29Z
2020-03-30T04:00:54Z,42.805,6.029,13.2963,4.59968,2469.947,2020-3-30T06:01:32Z
2020-03-30T04:03:57Z,42.805,6.029,13.2967,4.59968,2470.03,2020-3-30T06:04:35Z
2020-03-30T04:07:00Z,42.805,6.029,13.2969,4.59968,2469.993,2020-3-30T06:07:38Z
2020-03-30T04:10:03Z,42.805,6.029,13.2965,4.59967,2469.97,2020-3-30T06:10:42Z
2020-03-30T04:13:07Z,42.805,6.029,13.2966,4.59969,2469.984,2020-3-30T06:13:45Z
2020-03-30T04:16:10Z,42.805,6.029,13.2964,4.59968,2469.993,2020-3-30T06:16:48Z
2020-03-30T04:19:13Z,42.805,6.029,13.2968,4.59969,2469.97,2020-3-30T06:19:51Z
2020-03-30T04:22:16Z,42.805,6.029,13.2966,4.59968,2469.993,2020-3-30T06:22:55Z
2020-03-30T04:25:20Z,42.805,6.029,13.2969,4.59969,2469.993,2020-3-30T06:25:58Z
2020-03-30T04:28:23Z,42.805,6.029,13.2968,4.59970,2469.984,2020-3-30T06:29:01Z
2020-03-30T04:31:26Z,42.805,6.029,13.2966,4.59968,2469.993,2020-3-30T06:32:04Z
2020-03-30T04:34:29Z,42.805,6.029,13.2966,4.59968,2469.96,2020-3-30T06:35:08Z
2020-03-30T04:37:32Z,42.805,6.029,13.2968,4.59967,2469.97,2020-3-30T06:38:11Z
2020-03-30T04:40:36Z,42.805,6.029,13.2967,4.59968,2469.97,2020-3-30T06:41:14Z
2020-03-30T04:43:39Z,42.805,6.029,13.2968,4.59968,2469.96,2020-3-30T06:44:17Z
2020-03-30T04:46:42Z,42.805,6.029,13.2965,4.59968,2469.947,2020-3-30T06:47:20Z
2020-03-30T04:49:45Z,42.805,6.029,13.2966,4.59968,2469.97,2020-3-30T06:50:24Z
2020-03-30T04:52:49Z,42.805,6.029,13.2968,4.59968,2469.984,2020-3-30T06:53:27Z
2020-03-30T04:55:52Z,42.805,6.029,13.2968,4.59968,2469.947,2020-3-30T06:56:30Z
2020-03-30T04:58:55Z,42.805,6.029,13.2965,4.59968,2469.937,2020-3-30T06:59:33Z
2020-03-30T05:01:58Z,42.805,6.029,13.2966,4.59966,2469.923,2020-3-30T07:02:37Z
2020-03-30T05:05:02Z,42.805,6.029,13.2967,4.59967,2469.97,2020-3-30T07:05:40Z
2020-03-30T05:08:05Z,42.805,6.029,13.2969,4.59970,2469.937,2020-3-30T07:08:43Z
2020-03-30T05:11:08Z,42.805,6.029,13.2970,4.59968,2469.947,2020-3-30T07:11:46Z
2020-03-30T05:14:11Z,42.805,6.029,13.2965,4.59968,2469.96,2020-3-30T07:14:49Z
2020-03-30T05:17:14Z,42.805,6.029,13.2967,4.59968,2469.993,2020-3-30T07:17:53Z
2020-03-30T05:20:18Z,42.805,6.029,13.2967,4.59968,2469.947,2020-3-30T07:20:56Z
2020-03-30T05:23:21Z,42.805,6.029,13.2970,4.59968,2469.96,2020-3-30T07:23:59Z
2020-03-30T05:26:24Z,42.805,6.029,13.2967,4.59968,2469.993,2020-3-30T07:27:02Z
2020-03-30T05:29:27Z,42.805,6.029,13.2968,4.59969,2469.947,2020-3-30T07:30:06Z
2020-03-30T05:32:31Z,42.805,6.029,13.2965,4.59968,2469.937,2020-3-30T07:33:09Z
2020-03-30T05:35:34Z,42.805,6.029,13.2967,4.59972,2469.96,2020-3-30T07:36:12Z
2020-03-30T05:38:37Z,42.805,6.029,13.2967,4.59969,2469.984,2020-3-30T07:39:15Z
2020-03-30T05:41:40Z,42.805,6.029,13.2968,4.59967,2469.97,2020-3-30T07:42:19Z
2020-03-30T05:44:44Z,42.805,6.029,13.2963,4.59968,2469.97,2020-3-30T07:45:22Z
2020-03-30T05:47:47Z,42.805,6.029,13.2968,4.59970,2469.97,2020-3-30T07:48:25Z
2020-03-30T05:50:50Z,42.805,6.029,13.2970,4.59970,2469.97,2020-3-30T07:51:29Z
2020-03-30T05:53:53Z,42.805,6.029,13.2964,4.59968,2469.933,2020-3-30T07:54:32Z
2020-03-30T05:56:57Z,42.805,6.029,13.2966,4.59968,2469.96,2020-3-30T07:57:35Z
2020-03-30T06:00:00Z,42.805,6.029,13.2968,4.59967,2470.007,2020-3-30T08:00:38Z
2020-03-30T06:03:03Z,42.805,6.029,13.2967,4.59968,2469.947,2020-3-30T08:03:41Z
2020-03-30T06:06:06Z,42.805,6.029,13.2965,4.59968,2469.97,2020-3-30T08:06:45Z
2020-03-30T06:09:10Z,42.805,6.029,13.2969,4.59968,2469.97,2020-3-30T08:09:48Z
2020-03-30T06:12:13Z,42.805,6.029,13.2968,4.59969,2469.993,2020-3-30T08:12:51Z
2020-03-30T06:15:16Z,42.805,6.029,13.2968,4.59968,2469.97,2020-3-30T08:15:54Z
2020-03-30T06:18:19Z,42.805,6.029,13.2965,4.59968,2469.97,2020-3-30T08:18:58Z
2020-03-30T06:21:23Z,42.805,6.029,13.2969,4.59970,2469.993,2020-3-30T08:22:01Z
2020-03-30T06:24:26Z,42.805,6.029,13.2965,4.59968,2469.97,2020-3-30T08:25:04Z
2020-03-30T06:27:29Z,42.805,6.029,13.2966,4.59968,2469.97,2020-3-30T08:28:08Z
2020-03-30T06:30:32Z,42.805,6.029,13.2966,4.59968,2469.993,2020-3-30T08:31:11Z
2020-03-30T06:33:36Z,42.805,6.029,13.2967,4.59968,2470.007,2020-3-30T08:34:14Z
2020-03-30T06:36:39Z,42.805,6.029,13.2962,4.59968,2470.007,2020-3-30T08:37:17Z
2020-03-30T06:39:42Z,42.805,6.029,13.2970,4.59967,2469.97,2020-3-30T08:40:21Z
2020-03-30T06:42:46Z,42.805,6.029,13.2968,4.59968,2469.97,2020-3-30T08:43:24Z
2020-03-30T06:45:49Z,42.805,6.029,13.2967,4.59968,2469.984,2020-3-30T08:46:27Z
2020-03-30T06:48:52Z,42.805,6.029,13.2968,4.59968,2469.993,2020-3-30T08:49:30Z
2020-03-30T06:51:55Z,42.805,6.029,13.2963,4.59968,2469.947,2020-3-30T08:52:33Z
2020-03-30T06:54:58Z,42.805,6.029,13.2968,4.59966,2469.993,2020-3-30T08:55:37Z
2020-03-30T06:58:02Z,42.805,6.029,13.2967,4.59967,2469.993,2020-3-30T08:58:40Z
2020-03-30T07:01:05Z,42.805,6.029,13.2968,4.59969,2469.984,2020-3-30T09:01:43Z
2020-03-30T07:04:08Z,42.805,6.029,13.2966,4.59969,2469.993,2020-3-30T09:04:46Z
2020-03-30T07:07:11Z,42.805,6.029,13.2964,4.59968,2469.97,2020-3-30T09:07:50Z
2020-03-30T07:10:15Z,42.805,6.029,13.2964,4.59968,2470.007,2020-3-30T09:10:53Z
2020-03-30T07:13:18Z,42.805,6.029,13.2968,4.59967,2469.993,2020-3-30T09:13:56Z
2020-03-30T07:16:21Z,42.805,6.029,13.2968,4.59967,2470.007,2020-3-30T09:16:59Z
2020-03-30T07:19:24Z,42.805,6.029,13.2968,4.59968,2470.007,2020-3-30T09:20:03Z
2020-03-30T07:22:28Z,42.805,6.029,13.2966,4.59968,2470.017,2020-3-30T09:23:06Z
2020-03-30T07:25:31Z,42.805,6.029,13.2968,4.59969,2469.984,2020-3-30T09:26:09Z
2020-03-30T07:28:34Z,42.805,6.029,13.2965,4.59968,2469.984,2020-3-30T09:29:12Z
2020-03-30T07:31:37Z,42.805,6.029,13.2966,4.59969,2470.03,2020-3-30T09:32:16Z
2020-03-30T07:34:41Z,42.805,6.029,13.2966,4.59970,2470.017,2020-3-30T09:35:19Z
2020-03-30T07:37:44Z,42.805,6.029,13.2967,4.59968,2469.993,2020-3-30T09:38:22Z
2020-03-30T07:40:47Z,42.805,6.029,13.2965,4.59967,2470.007,2020-3-30T09:41:25Z
2020-03-30T07:43:50Z,42.805,6.029,13.2964,4.59968,2470.007,2020-3-30T09:44:29Z
2020-03-30T07:46:54Z,42.805,6.029,13.2968,4.59969,2469.993,2020-3-30T09:47:32Z
2020-03-30T07:49:57Z,42.805,6.029,13.2968,4.59968,2470.017,2020-3-30T09:50:35Z
2020-03-30T07:53:00Z,42.805,6.029,13.2966,4.59969,2469.993,2020-3-30T09:53:38Z
2020-03-30T07:56:03Z,42.805,6.029,13.2967,4.59971,2470.04,2020-3-30T09:56:42Z
2020-03-30T07:59:07Z,42.805,6.029,13.2968,4.59969,2470.017,2020-3-30T09:59:45Z
2020-03-30T08:02:10Z,42.805,6.029,13.2967,4.59968,2469.993,2020-3-30T10:02:48Z
2020-03-30T08:05:13Z,42.805,6.029,13.2967,4.59970,2470.017,2020-3-30T10:05:51Z
2020-03-30T08:08:16Z,42.805,6.029,13.2964,4.59970,2469.993,2020-3-30T10:08:55Z
2020-03-30T08:11:19Z,42.805,6.029,13.2962,4.59969,2470.049,2020-3-30T10:11:58Z
2020-03-30T08:14:23Z,42.805,6.029,13.2964,4.59971,2470.017,2020-3-30T10:15:01Z
2020-03-30T08:17:26Z,42.805,6.029,13.2966,4.59968,2470.017,2020-3-30T10:18:04Z
2020-03-30T08:20:29Z,42.805,6.029,13.2964,4.59968,2470.017,2020-3-30T10:21:07Z
2020-03-30T08:23:32Z,42.805,6.029,13.2966,4.59970,2470.04,2020-3-30T10:24:11Z
2020-03-30T08:26:36Z,42.805,6.029,13.2967,4.59968,2470.017,2020-3-30T10:27:14Z
2020-03-30T08:29:39Z,42.805,6.029,13.2968,4.59968,2470.017,2020-3-30T10:30:17Z
2020-03-30T08:32:42Z,42.805,6.029,13.2970,4.59968,2470.063,2020-3-30T10:33:20Z
2020-03-30T08:35:46Z,42.805,6.029,13.2968,4.59969,2470.04,2020-3-30T10:36:24Z
2020-03-30T08:38:49Z,42.805,6.029,13.2967,4.59970,2470.04,2020-3-30T10:39:27Z
2020-03-30T08:41:52Z,42.805,6.029,13.2968,4.59968,2470.063,2020-3-30T10:42:30Z
2020-03-30T08:44:55Z,42.805,6.029,13.2961,4.59968,2470.053,2020-3-30T10:45:34Z
2020-03-30T08:47:58Z,42.805,6.029,13.2969,4.59968,2470.063,2020-3-30T10:48:37Z
2020-03-30T08:51:02Z,42.805,6.029,13.2964,4.59966,2470.077,2020-3-30T10:51:40Z
2020-03-30T08:54:05Z,42.805,6.029,13.2968,4.59968,2470.04,2020-3-30T10:54:44Z
2020-03-30T08:57:08Z,42.805,6.029,13.2963,4.59969,2470.049,2020-3-30T10:57:47Z
2020-03-30T09:00:12Z,42.805,6.029,13.2968,4.59968,2470.063,2020-3-30T11:00:50Z
2020-03-30T09:03:15Z,42.805,6.029,13.2967,4.59968,2470.063,2020-3-30T11:03:53Z
2020-03-30T09:06:18Z,42.805,6.029,13.2968,4.59968,2470.04,2020-3-30T11:06:57Z
2020-03-30T09:09:22Z,42.805,6.029,13.2968,4.59969,2470.077,2020-3-30T11:10:00Z
2020-03-30T09:12:25Z,42.805,6.029,13.2967,4.59968,2470.053,2020-3-30T11:13:03Z
2020-03-30T09:15:28Z,42.805,6.029,13.2962,4.59968,2470.04,2020-3-30T11:16:06Z
2020-03-30T09:18:31Z,42.805,6.029,13.2964,4.59967,2470.063,2020-3-30T11:19:10Z
2020-03-30T09:21:35Z,42.805,6.029,13.2965,4.59968,2470.063,2020-3-30T11:22:13Z
2020-03-30T09:24:38Z,42.805,6.029,13.2967,4.59968,2470.087,2020-3-30T11:25:16Z
2020-03-30T09:27:41Z,42.805,6.029,13.2965,4.59968,2470.077,2020-3-30T11:28:19Z
2020-03-30T09:30:44Z,42.805,6.029,13.2966,4.59968,2470.063,2020-3-30T11:31:23Z
2020-03-30T09:33:48Z,42.805,6.029,13.2964,4.59968,2470.11,2020-3-30T11:34:26Z
2020-03-30T09:36:51Z,42.805,6.029,13.2968,4.59967,2470.087,2020-3-30T11:37:30Z
2020-03-30T09:39:55Z,42.805,6.029,13.2963,4.59967,2470.1,2020-3-30T11:40:33Z
2020-03-30T09:42:58Z,42.805,6.029,13.2965,4.59967,2470.04,2020-3-30T11:43:36Z
2020-03-30T09:46:01Z,42.805,6.029,13.2961,4.59967,2470.063,2020-3-30T11:46:39Z
2020-03-30T09:49:04Z,42.805,6.029,13.2967,4.59968,2470.087,2020-3-30T11:49:43Z
2020-03-30T09:52:08Z,42.805,6.029,13.2963,4.59968,2470.1,2020-3-30T11:52:46Z
2020-03-30T09:55:11Z,42.805,6.029,13.2966,4.59968,2470.063,2020-3-30T11:55:49Z
2020-03-30T09:58:14Z,42.805,6.029,13.2967,4.59968,2470.077,2020-3-30T11:58:52Z
2020-03-30T10:01:17Z,42.805,6.029,13.2962,4.59968,2470.053,2020-3-30T12:01:56Z
2020-03-30T10:04:21Z,42.805,6.029,13.2968,4.59968,2470.063,2020-3-30T12:04:59Z
2020-03-30T10:07:24Z,42.805,6.029,13.2965,4.59970,2470.063,2020-3-30T12:08:02Z
2020-03-30T10:10:27Z,42.805,6.029,13.2967,4.59967,2470.077,2020-3-30T12:11:05Z
2020-03-30T10:13:30Z,42.805,6.029,13.2971,4.59969,2470.063,2020-3-30T12:14:09Z
2020-03-30T10:16:34Z,42.805,6.029,13.2968,4.59969,2470.087,2020-3-30T12:17:12Z
2020-03-30T10:19:37Z,42.805,6.029,13.2962,4.59968,2470.053,2020-3-30T12:20:15Z
2020-03-30T10:22:40Z,42.805,6.029,13.2963,4.59968,2470.1,2020-3-30T12:23:19Z
2020-03-30T10:25:44Z,42.805,6.029,13.2963,4.59968,2470.026,2020-3-30T12:26:22Z
2020-03-30T10:28:47Z,42.805,6.029,13.2966,4.59969,2470.063,2020-3-30T12:29:25Z
2020-03-30T10:31:50Z,42.805,6.029,13.2967,4.59968,2470.063,2020-3-30T12:32:28Z
2020-03-30T10:34:53Z,42.805,6.029,13.2967,4.59968,2470.087,2020-3-30T12:35:32Z
2020-03-30T10:37:57Z,42.805,6.029,13.2962,4.59968,2470.063,2020-3-30T12:38:35Z
2020-03-30T10:41:00Z,42.805,6.029,13.2965,4.59968,2470.053,2020-3-30T12:41:38Z
2020-03-30T10:44:03Z,42.805,6.029,13.2967,4.59968,2470.077,2020-3-30T12:44:41Z
2020-03-30T10:47:06Z,42.805,6.029,13.2964,4.59970,2470.053,2020-3-30T12:47:45Z
2020-03-30T10:50:10Z,42.805,6.029,13.2967,4.59968,2470.063,2020-3-30T12:50:48Z
2020-03-30T10:53:13Z,42.805,6.029,13.2967,4.59967,2470.077,2020-3-30T12:53:51Z
2020-03-30T10:56:16Z,42.805,6.029,13.2964,4.59967,2470.087,2020-3-30T12:56:54Z
2020-03-30T10:59:19Z,42.805,6.029,13.2967,4.59967,2470.04,2020-3-30T12:59:57Z
2020-03-30T11:02:22Z,42.805,6.029,13.2967,4.59968,2470.063,2020-3-30T13:03:01Z
2020-03-30T11:05:26Z,42.805,6.029,13.2967,4.59968,2470.063,2020-3-30T13:06:04Z
2020-03-30T11:08:29Z,42.805,6.029,13.2968,4.59969,2470.053,2020-3-30T13:09:07Z
2020-03-30T11:11:32Z,42.805,6.029,13.2965,4.59969,2470.077,2020-3-30T13:12:10Z
2020-03-30T11:14:35Z,42.805,6.029,13.2964,4.59968,2470.053,2020-3-30T13:15:14Z
2020-03-30T11:17:39Z,42.805,6.029,13.2966,4.59969,2470.063,2020-3-30T13:18:17Z
2020-03-30T11:20:42Z,42.805,6.029,13.2968,4.59968,2470.077,2020-3-30T13:21:20Z
2020-03-30T11:23:45Z,42.805,6.029,13.2966,4.59968,2470.04,2020-3-30T13:24:24Z
2020-03-30T11:26:49Z,42.805,6.029,13.2966,4.59968,2470.053,2020-3-30T13:27:27Z
2020-03-30T11:29:52Z,42.805,6.029,13.2968,4.59970,2470.04,2020-3-30T13:30:30Z
2020-03-30T11:32:55Z,42.805,6.029,13.2964,4.59969,2470.077,2020-3-30T13:33:33Z
2020-03-30T11:35:58Z,42.805,6.029,13.2964,4.59968,2470.053,2020-3-30T13:36:37Z
2020-03-30T11:39:02Z,42.805,6.029,13.2965,4.59968,2470.04,2020-3-30T13:39:40Z
2020-03-30T11:42:05Z,42.805,6.029,13.2967,4.59968,2470.053,2020-3-30T13:42:43Z
2020-03-30T11:45:08Z,42.805,6.029,13.2967,4.59968,2470.04,2020-3-30T13:45:46Z
2020-03-30T11:48:11Z,42.805,6.029,13.2968,4.59968,2470.063,2020-3-30T13:48:50Z
2020-03-30T11:51:15Z,42.805,6.029,13.2967,4.59969,2470.063,2020-3-30T13:51:53Z
2020-03-30T11:54:18Z,42.805,6.029,13.2967,4.59968,2470.053,2020-3-30T13:54:56Z
2020-03-30T11:57:21Z,42.805,6.029,13.2966,4.59968,2470.04,2020-3-30T13:58:00Z
2020-03-30T12:00:24Z,42.805,6.029,13.2967,4.59969,2470.03,2020-3-30T14:01:03Z
2020-03-30T12:03:28Z,42.805,6.029,13.2968,4.59968,2470.04,2020-3-30T14:04:06Z
2020-03-30T12:06:31Z,42.805,6.029,13.2961,4.59968,2470.063,2020-3-30T14:07:09Z
2020-03-30T12:09:34Z,42.805,6.029,13.2964,4.59968,2470.04,2020-3-30T14:10:13Z
2020-03-30T12:12:38Z,42.805,6.029,13.2967,4.59968,2470.03,2020-3-30T14:13:16Z
2020-03-30T12:15:41Z,42.805,6.029,13.2966,4.59968,2470.017,2020-3-30T14:16:19Z
2020-03-30T12:18:44Z,42.805,6.029,13.2963,4.59969,2470.04,2020-3-30T14:19:22Z
2020-03-30T12:21:47Z,42.805,6.029,13.2964,4.59969,2470.017,2020-3-30T14:22:26Z
2020-03-30T12:24:51Z,42.805,6.029,13.2964,4.59968,2470.017,2020-3-30T14:25:29Z
2020-03-30T12:27:54Z,42.805,6.029,13.2967,4.59968,2470.04,2020-3-30T14:28:32Z
2020-03-30T12:30:57Z,42.805,6.029,13.2968,4.59969,2470.03,2020-3-30T14:31:35Z
2020-03-30T12:34:00Z,42.805,6.029,13.2967,4.59968,2470.017,2020-3-30T14:34:39Z
2020-03-30T12:37:04Z,42.805,6.029,13.2968,4.59969,2470.03,2020-3-30T14:37:42Z
2020-03-30T12:40:07Z,42.805,6.029,13.2966,4.59968,2470.04,2020-3-30T14:40:45Z
2020-03-30T12:43:10Z,42.805,6.029,13.2968,4.59969,2470.017,2020-3-30T14:43:48Z
2020-03-30T12:46:13Z,42.805,6.029,13.2965,4.59969,2469.993,2020-3-30T14:46:52Z
2020-03-30T12:49:17Z,42.805,6.029,13.2967,4.59969,2470.017,2020-3-30T14:49:55Z
2020-03-30T12:52:20Z,42.805,6.029,13.2968,4.59970,2470.017,2020-3-30T14:52:58Z
2020-03-30T12:55:23Z,42.805,6.029,13.2965,4.59968,2469.97,2020-3-30T14:56:02Z
2020-03-30T12:58:26Z,42.805,6.029,13.2964,4.59968,2470.017,2020-3-30T14:59:05Z
2020-03-30T13:01:30Z,42.805,6.029,13.2964,4.59968,2470.03,2020-3-30T15:02:08Z
2020-03-30T13:04:33Z,42.805,6.029,13.2967,4.59968,2469.993,2020-3-30T15:05:11Z
2020-03-30T13:07:36Z,42.805,6.029,13.2965,4.59968,2470.03,2020-3-30T15:08:14Z
2020-03-30T13:10:39Z,42.805,6.029,13.2968,4.59969,2470.017,2020-3-30T15:11:18Z
2020-03-30T13:13:43Z,42.805,6.029,13.2965,4.59968,2470.007,2020-3-30T15:14:21Z
2020-03-30T13:16:46Z,42.805,6.029,13.2969,4.59968,2470.017,2020-3-30T15:17:24Z
2020-03-30T13:19:49Z,42.805,6.029,13.2964,4.59968,2470.017,2020-3-30T15:20:28Z
2020-03-30T13:22:52Z,42.805,6.029,13.2967,4.59970,2470.017,2020-3-30T15:23:31Z
2020-03-30T13:25:56Z,42.805,6.029,13.2967,4.59968,2470.017,2020-3-30T15:26:34Z
2020-03-30T13:28:59Z,42.805,6.029,13.2967,4.59968,2469.993,2020-3-30T15:29:37Z
2020-03-30T13:32:02Z,42.805,6.029,13.2967,4.59969,2470.007,2020-3-30T15:32:40Z
2020-03-30T13:35:05Z,42.805,6.029,13.2966,4.59969,2469.984,2020-3-30T15:35:44Z
2020-03-30T13:38:09Z,42.805,6.029,13.2964,4.59970,2469.97,2020-3-30T15:38:47Z
2020-03-30T13:41:12Z,42.805,6.029,13.2964,4.59970,2470.007,2020-3-30T15:41:50Z
2020-03-30T13:44:15Z,42.805,6.029,13.2964,4.59970,2469.993,2020-3-30T15:44:53Z
2020-03-30T13:47:18Z,42.805,6.029,13.2965,4.59969,2470.017,2020-3-30T15:47:57Z
2020-03-30T13:50:22Z,42.805,6.029,13.2967,4.59968,2469.984,2020-3-30T15:51:00Z
2020-03-30T13:53:25Z,42.805,6.029,13.2968,4.59971,2469.97,2020-3-30T15:54:03Z
2020-03-30T13:56:28Z,42.805,6.029,13.2966,4.59969,2469.993,2020-3-30T15:57:06Z
2020-03-30T13:59:31Z,42.805,6.029,13.2968,4.59969,2470.017,2020-3-30T16:00:10Z
2020-03-30T14:02:35Z,42.805,6.029,13.2966,4.59968,2469.993,2020-3-30T16:03:13Z
2020-03-30T14:05:38Z,42.805,6.029,13.2965,4.59968,2470.007,2020-3-30T16:06:16Z
2020-03-30T14:08:41Z,42.805,6.029,13.2966,4.59968,2469.993,2020-3-30T16:09:19Z
2020-03-30T14:11:44Z,42.805,6.029,13.2968,4.59968,2469.97,2020-3-30T16:12:23Z
2020-03-30T14:14:47Z,42.805,6.029,13.2965,4.59968,2469.984,2020-3-30T16:15:26Z
2020-03-30T14:17:51Z,42.805,6.029,13.2968,4.59968,2470.03,2020-3-30T16:18:29Z
2020-03-30T14:20:54Z,42.805,6.029,13.2967,4.59968,2469.984,2020-3-30T16:21:32Z
2020-03-30T14:23:57Z,42.805,6.029,13.2964,4.59968,2469.984,2020-3-30T16:24:36Z
2020-03-30T14:27:00Z,42.805,6.029,13.2969,4.59968,2469.993,2020-3-30T16:27:39Z
2020-03-30T14:30:04Z,42.805,6.029,13.2968,4.59968,2470.007,2020-3-30T16:30:42Z
2020-03-30T14:33:07Z,42.805,6.029,13.2964,4.59968,2469.97,2020-3-30T16:33:45Z
2020-03-30T14:36:10Z,42.805,6.029,13.2967,4.59968,2469.97,2020-3-30T16:36:48Z
2020-03-30T14:39:13Z,42.805,6.029,13.2962,4.59968,2469.96,2020-3-30T16:39:52Z
2020-03-30T14:42:17Z,42.805,6.029,13.2968,4.59968,2469.947,2020-3-30T16:42:55Z
2020-03-30T14:45:20Z,42.805,6.029,13.2967,4.59968,2469.947,2020-3-30T16:45:59Z
2020-03-30T14:48:24Z,42.805,6.029,13.2968,4.59968,2469.993,2020-3-30T16:49:02Z
2020-03-30T14:51:27Z,42.805,6.029,13.2966,4.59967,2469.947,2020-3-30T16:52:05Z
2020-03-30T14:54:30Z,42.805,6.029,13.2967,4.59969,2469.947,2020-3-30T16:55:09Z
2020-03-30T14:57:33Z,42.805,6.029,13.2966,4.59968,2469.947,2020-3-30T16:58:12Z
2020-03-30T15:00:37Z,42.805,6.029,13.2967,4.59969,2470.03,2020-3-30T17:01:15Z
2020-03-30T15:03:40Z,42.805,6.029,13.2966,4.59968,2469.97,2020-3-30T17:04:18Z
2020-03-30T15:06:43Z,42.805,6.029,13.2963,4.59968,2469.947,2020-3-30T17:07:22Z
2020-03-30T15:09:46Z,42.805,6.029,13.2965,4.59969,2469.97,2020-3-30T17:10:25Z
2020-03-30T15:12:50Z,42.805,6.029,13.2968,4.59969,2469.97,2020-3-30T17:13:28Z
2020-03-30T15:15:53Z,42.805,6.029,13.2967,4.59968,2469.984,2020-3-30T17:16:31Z